Year,Month,Day,Hour,Minute,Value (Times are PST for windspeed in km/hr)
2009,05,03,00,00,5.60
2009,05,03,00,01,5.10
2009,05,03,00,02,5.20
2009,05,03,00,03,10.90
2009,05,03,00,04,7.00
2009,05,03,00,05,5.50
2009,05,03,00,06,9.30
2009,05,03,00,07,8.40
2009,05,03,00,08,6.60
2009,05,03,00,09,6.00
2009,05,03,00,10,8.80
2009,05,03,00,11,9.40
2009,05,03,00,12,7.00
2009,05,03,00,13,10.90
2009,05,03,00,14,8.80
2009,05,03,00,15,6.40
2009,05,03,00,16,10.70
2009,05,03,00,17,6.00
2009,05,03,00,18,4.60
2009,05,03,00,19,8.00
2009,05,03,00,20,3.70
2009,05,03,00,21,6.30
2009,05,03,00,22,3.70
2009,05,03,00,23,6.40
2009,05,03,00,24,4.70
2009,05,03,00,25,9.80
2009,05,03,00,26,10.70
2009,05,03,00,27,10.00
2009,05,03,00,28,6.40
2009,05,03,00,29,7.40
2009,05,03,00,30,15.00
2009,05,03,00,31,6.10
2009,05,03,00,32,4.90
2009,05,03,00,33,4.20
2009,05,03,00,34,14.10
2009,05,03,00,35,7.00
2009,05,03,00,36,4.50
2009,05,03,00,37,6.70
2009,05,03,00,38,3.20
2009,05,03,00,39,4.30
2009,05,03,00,40,5.30
2009,05,03,00,41,7.70
2009,05,03,00,42,5.40
2009,05,03,00,43,8.00
2009,05,03,00,44,12.00
2009,05,03,00,45,9.50
2009,05,03,00,46,11.00
2009,05,03,00,47,9.10
2009,05,03,00,48,8.30
2009,05,03,00,49,7.60
2009,05,03,00,50,4.30
2009,05,03,00,51,6.80
2009,05,03,00,52,8.40
2009,05,03,00,53,11.50
2009,05,03,00,54,6.00
2009,05,03,00,55,7.60
2009,05,03,00,56,9.10
2009,05,03,00,57,9.30
2009,05,03,00,58,2.70
2009,05,03,00,59,5.40
2009,05,03,01,00,9.70
2009,05,03,01,01,8.00
2009,05,03,01,02,3.60
2009,05,03,01,03,8.10
2009,05,03,01,04,1.20
2009,05,03,01,05,5.10
2009,05,03,01,06,8.00
2009,05,03,01,07,9.80
2009,05,03,01,08,6.70
2009,05,03,01,09,5.40
2009,05,03,01,10,4.80
2009,05,03,01,11,5.60
2009,05,03,01,12,9.30
2009,05,03,01,13,6.70
2009,05,03,01,14,7.30
2009,05,03,01,15,5.00
2009,05,03,01,16,6.90
2009,05,03,01,17,7.20
2009,05,03,01,18,5.70
2009,05,03,01,19,11.40
2009,05,03,01,20,5.30
2009,05,03,01,21,4.60
2009,05,03,01,22,8.00
2009,05,03,01,23,5.40
2009,05,03,01,24,4.30
2009,05,03,01,25,4.80
2009,05,03,01,26,8.10
2009,05,03,01,27,7.40
2009,05,03,01,28,5.60
2009,05,03,01,29,5.10
2009,05,03,01,30,2.90
2009,05,03,01,31,5.50
2009,05,03,01,32,2.80
2009,05,03,01,33,4.40
2009,05,03,01,34,5.00
2009,05,03,01,35,4.10
2009,05,03,01,36,6.00
2009,05,03,01,37,3.60
2009,05,03,01,38,1.40
2009,05,03,01,39,4.30
2009,05,03,01,40,3.40
2009,05,03,01,41,3.80
2009,05,03,01,42,4.00
2009,05,03,01,43,6.90
2009,05,03,01,44,3.80
2009,05,03,01,45,2.10
2009,05,03,01,46,6.40
2009,05,03,01,47,5.20
2009,05,03,01,48,1.80
2009,05,03,01,49,2.30
2009,05,03,01,50,0.00
2009,05,03,01,51,3.00
2009,05,03,01,52,4.50
2009,05,03,01,53,2.10
2009,05,03,01,54,6.10
2009,05,03,01,55,2.00
2009,05,03,01,56,1.30
2009,05,03,01,57,2.50
2009,05,03,01,58,2.90
2009,05,03,01,59,3.80
2009,05,03,02,00,5.20
2009,05,03,02,01,2.20
2009,05,03,02,02,1.40
2009,05,03,02,03,2.10
2009,05,03,02,04,4.70
2009,05,03,02,05,1.30
2009,05,03,02,06,4.60
2009,05,03,02,07,2.70
2009,05,03,02,08,0.40
2009,05,03,02,09,0.00
2009,05,03,02,10,0.20
2009,05,03,02,11,0.00
2009,05,03,02,12,2.00
2009,05,03,02,13,0.50
2009,05,03,02,14,0.00
2009,05,03,02,15,1.70
2009,05,03,02,16,0.10
2009,05,03,02,17,0.10
2009,05,03,02,18,1.90
2009,05,03,02,19,1.50
2009,05,03,02,20,0.00
2009,05,03,02,21,0.00
2009,05,03,02,22,1.00
2009,05,03,02,23,2.60
2009,05,03,02,24,2.50
2009,05,03,02,25,0.00
2009,05,03,02,26,0.00
2009,05,03,02,27,1.40
2009,05,03,02,28,1.30
2009,05,03,02,29,0.20
2009,05,03,02,30,3.10
2009,05,03,02,31,0.90
2009,05,03,02,32,0.20
2009,05,03,02,33,0.20
2009,05,03,02,34,0.30
2009,05,03,02,35,0.70
2009,05,03,02,36,1.40
2009,05,03,02,37,1.00
2009,05,03,02,38,0.50
2009,05,03,02,39,1.20
2009,05,03,02,40,2.60
2009,05,03,02,41,0.80
2009,05,03,02,42,0.00
2009,05,03,02,43,0.40
2009,05,03,02,44,0.80
2009,05,03,02,45,3.10
2009,05,03,02,46,2.00
2009,05,03,02,47,0.60
2009,05,03,02,48,1.10
2009,05,03,02,49,1.00
2009,05,03,02,50,0.60
2009,05,03,02,51,0.50
2009,05,03,02,52,1.00
2009,05,03,02,53,1.70
2009,05,03,02,54,1.10
2009,05,03,02,55,0.10
2009,05,03,02,56,0.00
2009,05,03,02,57,0.00
2009,05,03,02,58,0.40
2009,05,03,02,59,1.10
2009,05,03,03,00,0.70
2009,05,03,03,01,0.70
2009,05,03,03,02,2.70
2009,05,03,03,03,3.10
2009,05,03,03,04,1.90
2009,05,03,03,05,0.40
2009,05,03,03,06,2.90
2009,05,03,03,07,3.30
2009,05,03,03,08,1.40
2009,05,03,03,09,0.20
2009,05,03,03,10,0.30
2009,05,03,03,11,0.20
2009,05,03,03,12,0.00
2009,05,03,03,13,0.00
2009,05,03,03,14,0.00
2009,05,03,03,15,0.00
2009,05,03,03,16,0.10
2009,05,03,03,17,2.60
2009,05,03,03,18,0.40
2009,05,03,03,19,0.20
2009,05,03,03,20,2.60
2009,05,03,03,21,0.60
2009,05,03,03,22,1.30
2009,05,03,03,23,4.70
2009,05,03,03,24,2.90
2009,05,03,03,25,1.60
2009,05,03,03,26,2.30
2009,05,03,03,27,0.40
2009,05,03,03,28,0.90
2009,05,03,03,29,0.10
2009,05,03,03,30,0.00
2009,05,03,03,31,0.30
2009,05,03,03,32,0.30
2009,05,03,03,33,0.00
2009,05,03,03,34,1.50
2009,05,03,03,35,2.20
2009,05,03,03,36,0.40
2009,05,03,03,37,0.00
2009,05,03,03,38,0.00
2009,05,03,03,39,0.10
2009,05,03,03,40,0.10
2009,05,03,03,41,0.00
2009,05,03,03,42,0.00
2009,05,03,03,43,0.00
2009,05,03,03,44,0.00
2009,05,03,03,45,0.00
2009,05,03,03,46,0.00
2009,05,03,03,47,0.00
2009,05,03,03,48,0.00
2009,05,03,03,49,0.00
2009,05,03,03,50,0.00
2009,05,03,03,51,0.00
2009,05,03,03,52,0.20
2009,05,03,03,53,0.00
2009,05,03,03,54,0.00
2009,05,03,03,55,1.30
2009,05,03,03,56,0.10
2009,05,03,03,57,0.10
2009,05,03,03,58,0.00
2009,05,03,03,59,0.00
2009,05,03,04,00,0.00
2009,05,03,04,01,0.10
2009,05,03,04,02,0.50
2009,05,03,04,03,1.60
2009,05,03,04,04,0.00
2009,05,03,04,05,1.50
2009,05,03,04,06,2.40
2009,05,03,04,07,2.50
2009,05,03,04,08,0.70
2009,05,03,04,09,0.00
2009,05,03,04,10,2.70
2009,05,03,04,11,1.00
2009,05,03,04,12,0.00
2009,05,03,04,13,0.00
2009,05,03,04,14,0.00
2009,05,03,04,15,0.00
2009,05,03,04,16,0.00
2009,05,03,04,17,0.00
2009,05,03,04,18,0.00
2009,05,03,04,19,0.00
2009,05,03,04,20,0.00
2009,05,03,04,21,0.00
2009,05,03,04,22,0.00
2009,05,03,04,23,0.00
2009,05,03,04,24,0.00
2009,05,03,04,25,0.00
2009,05,03,04,26,0.00
2009,05,03,04,27,0.00
2009,05,03,04,28,0.00
2009,05,03,04,29,0.00
2009,05,03,04,30,0.00
2009,05,03,04,31,0.00
2009,05,03,04,32,0.00
2009,05,03,04,33,0.00
2009,05,03,04,34,0.00
2009,05,03,04,35,0.00
2009,05,03,04,36,0.00
2009,05,03,04,37,0.00
2009,05,03,04,38,0.00
2009,05,03,04,39,0.10
2009,05,03,04,40,0.00
2009,05,03,04,41,0.00
2009,05,03,04,42,0.00
2009,05,03,04,43,0.00
2009,05,03,04,44,0.00
2009,05,03,04,45,0.10
2009,05,03,04,46,0.60
2009,05,03,04,47,2.10
2009,05,03,04,48,1.00
2009,05,03,04,49,0.10
2009,05,03,04,50,0.10
2009,05,03,04,51,0.00
2009,05,03,04,52,0.00
2009,05,03,04,53,0.20
2009,05,03,04,54,1.90
2009,05,03,04,55,1.30
2009,05,03,04,56,2.90
2009,05,03,04,57,2.20
2009,05,03,04,58,0.10
2009,05,03,04,59,0.00
2009,05,03,05,00,0.00
2009,05,03,05,01,0.00
2009,05,03,05,02,0.60
2009,05,03,05,03,1.70
2009,05,03,05,04,0.00
2009,05,03,05,05,0.00
2009,05,03,05,06,1.00
2009,05,03,05,07,0.00
2009,05,03,05,08,0.00
2009,05,03,05,09,0.20
2009,05,03,05,10,0.00
2009,05,03,05,11,0.00
2009,05,03,05,12,0.00
2009,05,03,05,13,0.00
2009,05,03,05,14,0.00
2009,05,03,05,15,0.00
2009,05,03,05,16,0.00
2009,05,03,05,17,0.00
2009,05,03,05,18,0.00
2009,05,03,05,19,0.00
2009,05,03,05,20,0.00
2009,05,03,05,21,0.00
2009,05,03,05,22,0.80
2009,05,03,05,23,0.10
2009,05,03,05,24,0.00
2009,05,03,05,25,0.00
2009,05,03,05,26,0.00
2009,05,03,05,27,0.00
2009,05,03,05,28,0.30
2009,05,03,05,29,0.00
2009,05,03,05,30,0.00
2009,05,03,05,31,0.00
2009,05,03,05,32,0.30
2009,05,03,05,33,0.30
2009,05,03,05,34,0.00
2009,05,03,05,35,0.00
2009,05,03,05,36,0.00
2009,05,03,05,37,0.00
2009,05,03,05,38,0.00
2009,05,03,05,39,0.00
2009,05,03,05,40,0.10
2009,05,03,05,41,0.00
2009,05,03,05,42,0.00
2009,05,03,05,43,0.00
2009,05,03,05,44,0.00
2009,05,03,05,45,0.00
2009,05,03,05,46,0.00
2009,05,03,05,47,0.00
2009,05,03,05,48,0.00
2009,05,03,05,49,0.00
2009,05,03,05,50,0.00
2009,05,03,05,51,0.00
2009,05,03,05,52,0.00
2009,05,03,05,53,0.00
2009,05,03,05,54,0.00
2009,05,03,05,55,0.00
2009,05,03,05,56,0.00
2009,05,03,05,57,0.00
2009,05,03,05,58,0.00
2009,05,03,05,59,0.00
2009,05,03,06,00,0.00
2009,05,03,06,01,0.00
2009,05,03,06,02,0.00
2009,05,03,06,03,0.00
2009,05,03,06,04,0.00
2009,05,03,06,05,0.00
2009,05,03,06,06,0.00
2009,05,03,06,07,0.00
2009,05,03,06,08,0.00
2009,05,03,06,09,0.00
2009,05,03,06,10,0.00
2009,05,03,06,11,0.00
2009,05,03,06,12,0.00
2009,05,03,06,13,0.00
2009,05,03,06,14,0.00
2009,05,03,06,15,0.00
2009,05,03,06,16,0.20
2009,05,03,06,17,0.70
2009,05,03,06,18,0.30
2009,05,03,06,19,0.00
2009,05,03,06,20,0.00
2009,05,03,06,21,0.00
2009,05,03,06,22,0.00
2009,05,03,06,23,0.00
2009,05,03,06,24,0.00
2009,05,03,06,25,0.00
2009,05,03,06,26,0.00
2009,05,03,06,27,0.00
2009,05,03,06,28,0.00
2009,05,03,06,29,0.00
2009,05,03,06,30,0.00
2009,05,03,06,31,0.00
2009,05,03,06,32,0.00
2009,05,03,06,33,0.00
2009,05,03,06,34,0.00
2009,05,03,06,35,0.00
2009,05,03,06,36,0.00
2009,05,03,06,37,0.00
2009,05,03,06,38,0.00
2009,05,03,06,39,0.00
2009,05,03,06,40,0.00
2009,05,03,06,41,0.00
2009,05,03,06,42,0.00
2009,05,03,06,43,0.00
2009,05,03,06,44,0.00
2009,05,03,06,45,0.00
2009,05,03,06,46,0.00
2009,05,03,06,47,0.00
2009,05,03,06,48,0.00
2009,05,03,06,49,0.00
2009,05,03,06,50,0.00
2009,05,03,06,51,0.00
2009,05,03,06,52,0.00
2009,05,03,06,53,0.00
2009,05,03,06,54,0.00
2009,05,03,06,55,0.00
2009,05,03,06,56,0.00
2009,05,03,06,57,0.00
2009,05,03,06,58,0.00
2009,05,03,06,59,0.00
2009,05,03,07,00,0.00
2009,05,03,07,01,0.00
2009,05,03,07,02,0.00
2009,05,03,07,03,0.00
2009,05,03,07,04,0.00
2009,05,03,07,05,0.00
2009,05,03,07,06,0.00
2009,05,03,07,07,0.00
2009,05,03,07,08,0.00
2009,05,03,07,09,0.00
2009,05,03,07,10,0.00
2009,05,03,07,11,0.00
2009,05,03,07,12,0.10
2009,05,03,07,13,0.00
2009,05,03,07,14,0.00
2009,05,03,07,15,0.20
2009,05,03,07,16,0.00
2009,05,03,07,17,0.00
2009,05,03,07,18,0.00
2009,05,03,07,19,0.00
2009,05,03,07,20,0.00
2009,05,03,07,21,0.00
2009,05,03,07,22,0.10
2009,05,03,07,23,0.00
2009,05,03,07,24,0.00
2009,05,03,07,25,0.00
2009,05,03,07,26,0.00
2009,05,03,07,27,0.00
2009,05,03,07,28,0.00
2009,05,03,07,29,0.00
2009,05,03,07,30,0.40
2009,05,03,07,31,0.00
2009,05,03,07,32,0.00
2009,05,03,07,33,0.00
2009,05,03,07,34,0.00
2009,05,03,07,35,0.10
2009,05,03,07,36,0.00
2009,05,03,07,37,0.00
2009,05,03,07,38,0.00
2009,05,03,07,39,0.00
2009,05,03,07,40,0.00
2009,05,03,07,41,0.00
2009,05,03,07,42,0.00
2009,05,03,07,43,0.00
2009,05,03,07,44,0.50
2009,05,03,07,45,1.80
2009,05,03,07,46,1.80
2009,05,03,07,47,3.90
2009,05,03,07,48,4.50
2009,05,03,07,49,2.50
2009,05,03,07,50,0.70
2009,05,03,07,51,0.00
2009,05,03,07,52,2.80
2009,05,03,07,53,0.00
2009,05,03,07,54,0.70
2009,05,03,07,55,0.60
2009,05,03,07,56,4.00
2009,05,03,07,57,3.10
2009,05,03,07,58,2.10
2009,05,03,07,59,4.00
2009,05,03,08,00,0.40
2009,05,03,08,01,3.60
2009,05,03,08,02,1.40
2009,05,03,08,03,0.00
2009,05,03,08,04,0.10
2009,05,03,08,05,0.40
2009,05,03,08,06,2.20
2009,05,03,08,07,0.60
2009,05,03,08,08,0.00
2009,05,03,08,09,0.00
2009,05,03,08,10,0.00
2009,05,03,08,11,0.00
2009,05,03,08,12,0.20
2009,05,03,08,13,0.00
2009,05,03,08,14,0.00
2009,05,03,08,15,0.00
2009,05,03,08,16,0.20
2009,05,03,08,17,0.50
2009,05,03,08,18,0.00
2009,05,03,08,19,0.00
2009,05,03,08,20,0.00
2009,05,03,08,21,0.10
2009,05,03,08,22,0.00
2009,05,03,08,23,0.10
2009,05,03,08,24,0.00
2009,05,03,08,25,0.00
2009,05,03,08,26,0.00
2009,05,03,08,27,0.00
2009,05,03,08,28,0.00
2009,05,03,08,29,0.00
2009,05,03,08,30,0.40
2009,05,03,08,31,0.50
2009,05,03,08,32,1.40
2009,05,03,08,33,2.80
2009,05,03,08,34,0.20
2009,05,03,08,35,0.20
2009,05,03,08,36,0.10
2009,05,03,08,37,0.00
2009,05,03,08,38,0.00
2009,05,03,08,39,2.80
2009,05,03,08,40,2.60
2009,05,03,08,41,4.60
2009,05,03,08,42,2.20
2009,05,03,08,43,2.70
2009,05,03,08,44,0.80
2009,05,03,08,45,0.60
2009,05,03,08,46,0.50
2009,05,03,08,47,0.00
2009,05,03,08,48,0.20
2009,05,03,08,49,1.80
2009,05,03,08,50,0.00
2009,05,03,08,51,0.20
2009,05,03,08,52,0.90
2009,05,03,08,53,1.10
2009,05,03,08,54,0.00
2009,05,03,08,55,0.00
2009,05,03,08,56,0.00
2009,05,03,08,57,2.00
2009,05,03,08,58,3.90
2009,05,03,08,59,0.10
2009,05,03,09,00,0.70
2009,05,03,09,01,0.00
2009,05,03,09,02,2.00
2009,05,03,09,03,6.10
2009,05,03,09,04,1.20
2009,05,03,09,05,1.50
2009,05,03,09,06,0.00
2009,05,03,09,07,0.20
2009,05,03,09,08,0.00
2009,05,03,09,09,0.80
2009,05,03,09,10,0.00
2009,05,03,09,11,0.00
2009,05,03,09,12,0.10
2009,05,03,09,13,0.10
2009,05,03,09,14,0.20
2009,05,03,09,15,0.00
2009,05,03,09,16,1.00
2009,05,03,09,17,2.20
2009,05,03,09,18,2.50
2009,05,03,09,19,0.00
2009,05,03,09,20,1.40
2009,05,03,09,21,0.20
2009,05,03,09,22,4.50
2009,05,03,09,23,0.60
2009,05,03,09,24,2.10
2009,05,03,09,25,6.60
2009,05,03,09,26,5.00
2009,05,03,09,27,2.60
2009,05,03,09,28,5.40
2009,05,03,09,29,4.20
2009,05,03,09,30,3.90
2009,05,03,09,31,4.40
2009,05,03,09,32,3.20
2009,05,03,09,33,5.70
2009,05,03,09,34,1.10
2009,05,03,09,35,8.90
2009,05,03,09,36,6.00
2009,05,03,09,37,4.40
2009,05,03,09,38,1.70
2009,05,03,09,39,4.80
2009,05,03,09,40,6.10
2009,05,03,09,41,5.00
2009,05,03,09,42,3.50
2009,05,03,09,43,2.20
2009,05,03,09,44,7.00
2009,05,03,09,45,3.80
2009,05,03,09,46,4.70
2009,05,03,09,47,3.30
2009,05,03,09,48,6.20
2009,05,03,09,49,5.00
2009,05,03,09,50,0.30
2009,05,03,09,51,1.70
2009,05,03,09,52,4.70
2009,05,03,09,53,4.50
2009,05,03,09,54,1.10
2009,05,03,09,55,3.10
2009,05,03,09,56,1.70
2009,05,03,09,57,1.90
2009,05,03,09,58,5.80
2009,05,03,09,59,5.50
2009,05,03,10,00,4.40
2009,05,03,10,01,6.20
2009,05,03,10,02,4.50
2009,05,03,10,03,3.50
2009,05,03,10,04,10.90
2009,05,03,10,05,6.20
2009,05,03,10,06,11.60
2009,05,03,10,07,10.70
2009,05,03,10,08,8.20
2009,05,03,10,09,10.70
2009,05,03,10,10,7.30
2009,05,03,10,11,9.30
2009,05,03,10,12,10.30
2009,05,03,10,13,8.50
2009,05,03,10,14,6.70
2009,05,03,10,15,10.20
2009,05,03,10,16,8.90
2009,05,03,10,17,9.10
2009,05,03,10,18,6.90
2009,05,03,10,19,9.00
2009,05,03,10,20,12.60
2009,05,03,10,21,10.50
2009,05,03,10,22,7.40
2009,05,03,10,23,3.10
2009,05,03,10,24,8.70
2009,05,03,10,25,11.60
2009,05,03,10,26,6.40
2009,05,03,10,27,3.60
2009,05,03,10,28,2.20
2009,05,03,10,29,9.90
2009,05,03,10,30,10.90
2009,05,03,10,31,15.90
2009,05,03,10,32,9.80
2009,05,03,10,33,10.90
2009,05,03,10,34,9.00
2009,05,03,10,35,7.30
2009,05,03,10,36,7.00
2009,05,03,10,37,6.30
2009,05,03,10,38,7.20
2009,05,03,10,39,7.40
2009,05,03,10,40,10.40
2009,05,03,10,41,4.60
2009,05,03,10,42,9.50
2009,05,03,10,43,5.90
2009,05,03,10,44,4.70
2009,05,03,10,45,6.00
2009,05,03,10,46,6.70
2009,05,03,10,47,5.40
2009,05,03,10,48,4.70
2009,05,03,10,49,8.00
2009,05,03,10,50,7.30
2009,05,03,10,51,8.50
2009,05,03,10,52,5.50
2009,05,03,10,53,6.40
2009,05,03,10,54,5.60
2009,05,03,10,55,7.20
2009,05,03,10,56,6.60
2009,05,03,10,57,5.00
2009,05,03,10,58,6.90
2009,05,03,10,59,6.70
2009,05,03,11,00,4.30
2009,05,03,11,01,9.20
2009,05,03,11,02,10.60
2009,05,03,11,03,7.70
2009,05,03,11,04,7.00
2009,05,03,11,05,3.20
2009,05,03,11,06,8.90
2009,05,03,11,07,6.20
2009,05,03,11,08,6.10
2009,05,03,11,09,7.20
2009,05,03,11,10,2.90
2009,05,03,11,11,7.80
2009,05,03,11,12,4.90
2009,05,03,11,13,6.40
2009,05,03,11,14,6.50
2009,05,03,11,15,5.70
2009,05,03,11,16,6.50
2009,05,03,11,17,7.40
2009,05,03,11,18,10.50
2009,05,03,11,19,13.30
2009,05,03,11,20,7.20
2009,05,03,11,21,8.60
2009,05,03,11,22,8.60
2009,05,03,11,23,9.50
2009,05,03,11,24,4.40
2009,05,03,11,25,6.70
2009,05,03,11,26,8.90
2009,05,03,11,27,7.40
2009,05,03,11,28,6.20
2009,05,03,11,29,5.60
2009,05,03,11,30,0.90
2009,05,03,11,31,2.10
2009,05,03,11,32,6.50
2009,05,03,11,33,8.50
2009,05,03,11,34,6.80
2009,05,03,11,35,2.60
2009,05,03,11,36,7.00
2009,05,03,11,37,7.00
2009,05,03,11,38,6.60
2009,05,03,11,39,3.20
2009,05,03,11,40,3.30
2009,05,03,11,41,6.70
2009,05,03,11,42,7.20
2009,05,03,11,43,5.70
2009,05,03,11,44,6.50
2009,05,03,11,45,9.50
2009,05,03,11,46,6.20
2009,05,03,11,47,1.70
2009,05,03,11,48,5.60
2009,05,03,11,49,4.10
2009,05,03,11,50,6.50
2009,05,03,11,51,8.10
2009,05,03,11,52,7.90
2009,05,03,11,53,8.50
2009,05,03,11,54,5.60
2009,05,03,11,55,5.00
2009,05,03,11,56,2.10
2009,05,03,11,57,6.20
2009,05,03,11,58,8.00
2009,05,03,11,59,10.10
2009,05,03,12,00,6.90
2009,05,03,12,01,5.70
2009,05,03,12,02,1.20
2009,05,03,12,03,6.40
2009,05,03,12,04,5.30
2009,05,03,12,05,5.80
2009,05,03,12,06,5.90
2009,05,03,12,07,7.10
2009,05,03,12,08,4.40
2009,05,03,12,09,2.10
2009,05,03,12,10,7.50
2009,05,03,12,11,4.00
2009,05,03,12,12,5.00
2009,05,03,12,13,4.10
2009,05,03,12,14,10.60
2009,05,03,12,15,12.00
2009,05,03,12,16,12.60
2009,05,03,12,17,11.90
2009,05,03,12,18,8.40
2009,05,03,12,19,2.90
2009,05,03,12,20,4.00
2009,05,03,12,21,9.20
2009,05,03,12,22,7.40
2009,05,03,12,23,8.90
2009,05,03,12,24,6.70
2009,05,03,12,25,6.10
2009,05,03,12,26,3.40
2009,05,03,12,27,2.50
2009,05,03,12,28,3.10
2009,05,03,12,29,9.00
2009,05,03,12,30,3.60
2009,05,03,12,31,5.30
2009,05,03,12,32,6.30
2009,05,03,12,33,7.40
2009,05,03,12,34,8.80
2009,05,03,12,35,10.70
2009,05,03,12,36,9.30
2009,05,03,12,37,6.00
2009,05,03,12,38,7.80
2009,05,03,12,39,5.10
2009,05,03,12,40,5.40
2009,05,03,12,41,3.20
2009,05,03,12,42,7.60
2009,05,03,12,43,9.00
2009,05,03,12,44,8.10
2009,05,03,12,45,5.30
2009,05,03,12,46,8.00
2009,05,03,12,47,7.30
2009,05,03,12,48,8.20
2009,05,03,12,49,4.60
2009,05,03,12,50,5.70
2009,05,03,12,51,4.40
2009,05,03,12,52,6.40
2009,05,03,12,53,7.20
2009,05,03,12,54,7.10
2009,05,03,12,55,5.00
2009,05,03,12,56,6.20
2009,05,03,12,57,4.40
2009,05,03,12,58,6.10
2009,05,03,12,59,9.40
2009,05,03,13,00,7.00
2009,05,03,13,01,8.50
2009,05,03,13,02,3.60
2009,05,03,13,03,0.50
2009,05,03,13,04,9.10
2009,05,03,13,05,7.50
2009,05,03,13,06,4.80
2009,05,03,13,07,8.10
2009,05,03,13,08,5.60
2009,05,03,13,09,4.30
2009,05,03,13,10,1.50
2009,05,03,13,11,9.40
2009,05,03,13,12,5.50
2009,05,03,13,13,10.20
2009,05,03,13,14,8.10
2009,05,03,13,15,8.90
2009,05,03,13,16,7.70
2009,05,03,13,17,8.00
2009,05,03,13,18,5.30
2009,05,03,13,19,9.00
2009,05,03,13,20,10.10
2009,05,03,13,21,10.60
2009,05,03,13,22,10.60
2009,05,03,13,23,9.00
2009,05,03,13,24,7.90
2009,05,03,13,25,6.90
2009,05,03,13,26,10.40
2009,05,03,13,27,11.30
2009,05,03,13,28,9.20
2009,05,03,13,29,10.80
2009,05,03,13,30,6.50
2009,05,03,13,31,13.60
2009,05,03,13,32,9.10
2009,05,03,13,33,3.60
2009,05,03,13,34,12.90
2009,05,03,13,35,14.90
2009,05,03,13,36,13.10
2009,05,03,13,37,9.50
2009,05,03,13,38,7.60
2009,05,03,13,39,8.20
2009,05,03,13,40,9.20
2009,05,03,13,41,6.80
2009,05,03,13,42,13.70
2009,05,03,13,43,15.40
2009,05,03,13,44,9.70
2009,05,03,13,45,6.80
2009,05,03,13,46,8.50
2009,05,03,13,47,8.00
2009,05,03,13,48,9.10
2009,05,03,13,49,10.30
2009,05,03,13,50,6.30
2009,05,03,13,51,8.70
2009,05,03,13,52,8.30
2009,05,03,13,53,9.30
2009,05,03,13,54,12.70
2009,05,03,13,55,7.10
2009,05,03,13,56,8.50
2009,05,03,13,57,4.40
2009,05,03,13,58,1.80
2009,05,03,13,59,5.40
2009,05,03,14,00,12.50
2009,05,03,14,01,9.50
2009,05,03,14,02,12.00
2009,05,03,14,03,8.20
2009,05,03,14,04,7.20
2009,05,03,14,05,8.30
2009,05,03,14,06,8.40
2009,05,03,14,07,9.20
2009,05,03,14,08,9.30
2009,05,03,14,09,9.00
2009,05,03,14,10,8.00
2009,05,03,14,11,7.30
2009,05,03,14,12,8.00
2009,05,03,14,13,9.10
2009,05,03,14,14,3.40
2009,05,03,14,15,10.30
2009,05,03,14,16,8.10
2009,05,03,14,17,7.40
2009,05,03,14,18,7.90
2009,05,03,14,19,8.40
2009,05,03,14,20,6.70
2009,05,03,14,21,5.80
2009,05,03,14,22,7.10
2009,05,03,14,23,12.30
2009,05,03,14,24,8.30
2009,05,03,14,25,9.20
2009,05,03,14,26,7.80
2009,05,03,14,27,6.80
2009,05,03,14,28,4.90
2009,05,03,14,29,5.60
2009,05,03,14,30,9.30
2009,05,03,14,31,7.70
2009,05,03,14,32,6.70
2009,05,03,14,33,5.00
2009,05,03,14,34,5.60
2009,05,03,14,35,6.70
2009,05,03,14,36,4.70
2009,05,03,14,37,2.60
2009,05,03,14,38,1.30
2009,05,03,14,39,2.20
2009,05,03,14,40,3.50
2009,05,03,14,41,9.50
2009,05,03,14,42,4.30
2009,05,03,14,43,5.50
2009,05,03,14,44,7.70
2009,05,03,14,45,6.60
2009,05,03,14,46,8.10
2009,05,03,14,47,5.30
2009,05,03,14,48,7.90
2009,05,03,14,49,3.90
2009,05,03,14,50,7.70
2009,05,03,14,51,9.70
2009,05,03,14,52,7.20
2009,05,03,14,53,6.60
2009,05,03,14,54,2.70
2009,05,03,14,55,6.10
2009,05,03,14,56,4.60
2009,05,03,14,57,8.70
2009,05,03,14,58,10.10
2009,05,03,14,59,6.70
2009,05,03,15,00,3.70
2009,05,03,15,01,3.20
2009,05,03,15,02,6.30
2009,05,03,15,03,4.30
2009,05,03,15,04,9.70
2009,05,03,15,05,8.30
2009,05,03,15,06,4.70
2009,05,03,15,07,5.10
2009,05,03,15,08,3.50
2009,05,03,15,09,9.10
2009,05,03,15,10,6.60
2009,05,03,15,11,6.10
2009,05,03,15,12,4.80
2009,05,03,15,13,3.90
2009,05,03,15,14,6.50
2009,05,03,15,15,5.20
2009,05,03,15,16,2.20
2009,05,03,15,17,6.10
2009,05,03,15,18,7.60
2009,05,03,15,19,2.80
2009,05,03,15,20,1.80
2009,05,03,15,21,3.80
2009,05,03,15,22,3.80
2009,05,03,15,23,5.30
2009,05,03,15,24,5.50
2009,05,03,15,25,5.00
2009,05,03,15,26,5.80
2009,05,03,15,27,3.70
2009,05,03,15,28,6.80
2009,05,03,15,29,2.90
2009,05,03,15,30,2.80
2009,05,03,15,31,8.20
2009,05,03,15,32,6.10
2009,05,03,15,33,7.40
2009,05,03,15,34,9.50
2009,05,03,15,35,5.30
2009,05,03,15,36,6.40
2009,05,03,15,37,7.00
2009,05,03,15,38,9.50
2009,05,03,15,39,9.00
2009,05,03,15,40,5.00
2009,05,03,15,41,2.70
2009,05,03,15,42,2.40
2009,05,03,15,43,6.50
2009,05,03,15,44,5.60
2009,05,03,15,45,7.90
2009,05,03,15,46,8.70
2009,05,03,15,47,4.30
2009,05,03,15,48,2.50
2009,05,03,15,49,3.20
2009,05,03,15,50,6.20
2009,05,03,15,51,2.90
2009,05,03,15,52,6.40
2009,05,03,15,53,7.20
2009,05,03,15,54,5.40
2009,05,03,15,55,4.30
2009,05,03,15,56,8.00
2009,05,03,15,57,8.90
2009,05,03,15,58,7.50
2009,05,03,15,59,5.50
2009,05,03,16,00,6.40
2009,05,03,16,01,8.00
2009,05,03,16,02,4.10
2009,05,03,16,03,12.30
2009,05,03,16,04,8.70
2009,05,03,16,05,6.20
2009,05,03,16,06,3.40
2009,05,03,16,07,6.10
2009,05,03,16,08,7.60
2009,05,03,16,09,2.10
2009,05,03,16,10,7.00
2009,05,03,16,11,2.30
2009,05,03,16,12,1.60
2009,05,03,16,13,7.90
2009,05,03,16,14,5.10
2009,05,03,16,15,7.80
2009,05,03,16,16,6.20
2009,05,03,16,17,6.00
2009,05,03,16,18,5.50
2009,05,03,16,19,8.90
2009,05,03,16,20,2.60
2009,05,03,16,21,3.10
2009,05,03,16,22,8.80
2009,05,03,16,23,7.50
2009,05,03,16,24,7.40
2009,05,03,16,25,13.20
2009,05,03,16,26,10.60
2009,05,03,16,27,11.30
2009,05,03,16,28,7.20
2009,05,03,16,29,10.70
2009,05,03,16,30,4.60
2009,05,03,16,31,6.30
2009,05,03,16,32,3.40
2009,05,03,16,33,3.10
2009,05,03,16,34,5.60
2009,05,03,16,35,5.50
2009,05,03,16,36,4.00
2009,05,03,16,37,2.30
2009,05,03,16,38,4.50
2009,05,03,16,39,4.70
2009,05,03,16,40,4.20
2009,05,03,16,41,7.80
2009,05,03,16,42,4.50
2009,05,03,16,43,4.30
2009,05,03,16,44,4.10
2009,05,03,16,45,5.80
2009,05,03,16,46,3.60
2009,05,03,16,47,6.30
2009,05,03,16,48,6.30
2009,05,03,16,49,4.50
2009,05,03,16,50,9.80
2009,05,03,16,51,6.70
2009,05,03,16,52,5.50
2009,05,03,16,53,8.40
2009,05,03,16,54,6.60
2009,05,03,16,55,6.40
2009,05,03,16,56,8.40
2009,05,03,16,57,6.90
2009,05,03,16,58,7.10
2009,05,03,16,59,5.70
2009,05,03,17,00,3.20
2009,05,03,17,01,0.80
2009,05,03,17,02,2.20
2009,05,03,17,03,1.10
2009,05,03,17,04,2.60
2009,05,03,17,05,6.30
2009,05,03,17,06,3.10
2009,05,03,17,07,5.60
2009,05,03,17,08,10.90
2009,05,03,17,09,10.80
2009,05,03,17,10,5.40
2009,05,03,17,11,5.60
2009,05,03,17,12,8.80
2009,05,03,17,13,7.90
2009,05,03,17,14,9.10
2009,05,03,17,15,3.40
2009,05,03,17,16,2.00
2009,05,03,17,17,2.90
2009,05,03,17,18,1.80
2009,05,03,17,19,5.60
2009,05,03,17,20,3.70
2009,05,03,17,21,1.70
2009,05,03,17,22,2.60
2009,05,03,17,23,3.00
2009,05,03,17,24,4.40
2009,05,03,17,25,5.90
2009,05,03,17,26,1.60
2009,05,03,17,27,3.40
2009,05,03,17,28,4.20
2009,05,03,17,29,7.60
2009,05,03,17,30,8.50
2009,05,03,17,31,4.30
2009,05,03,17,32,4.20
2009,05,03,17,33,1.40
2009,05,03,17,34,1.70
2009,05,03,17,35,5.20
2009,05,03,17,36,3.60
2009,05,03,17,37,7.80
2009,05,03,17,38,0.90
2009,05,03,17,39,3.30
2009,05,03,17,40,1.30
2009,05,03,17,41,4.40
2009,05,03,17,42,8.40
2009,05,03,17,43,7.30
2009,05,03,17,44,4.60
2009,05,03,17,45,7.00
2009,05,03,17,46,6.10
2009,05,03,17,47,5.00
2009,05,03,17,48,3.60
2009,05,03,17,49,3.00
2009,05,03,17,50,7.90
2009,05,03,17,51,5.60
2009,05,03,17,52,6.30
2009,05,03,17,53,5.70
2009,05,03,17,54,0.70
2009,05,03,17,55,6.40
2009,05,03,17,56,5.90
2009,05,03,17,57,2.80
2009,05,03,17,58,5.00
2009,05,03,17,59,6.10
2009,05,03,18,00,4.10
2009,05,03,18,01,5.10
2009,05,03,18,02,1.00
2009,05,03,18,03,2.80